Location: Baia Mare
(47.6567°N, 23.5850°E)
Time: 07:19:48
(UTC+03:00)

ISS - Pass Details

Date: 09 September 2018
Orbit: 403 x 409 km, 51.6° (Epoch: 24 September)

Event Time Altitude Azimuth Distance (km) Brightness Sun altitude
Exits shadow 06:18:05 - 291° (WNW) 1,901 -0.9 -6.8°
Reaches altitude 10° 06:19:11 10° 295° (WNW) 1,465 -1.4 -6.6°
Maximum altitude 06:22:21 44° 9° (N) 572 -2.8 -6.1°
Drops below altitude 10° 06:25:30 10° 84° (E) 1,460 0.8 -5.6°
Sets 06:27:38 0° 91° (E) 2,317 1.9 -5.3°
